Location: Peralejo
(40.5415°N, 4.1259°W)
Time: 12:41:13
(UTC+00:00)

Daily predictions for brighter satellites

Satellite Brightness Start Highest point End
(mag) Time Altitude Azimuth Time Altitude Azimuth Time Altitude Azimuth
Cosmos 1954 Rocket 4.3 20:13:40 10° N 20:18:50 54° ENE 20:23:54 10° SE
Lacrosse 5 rocket 1.6 20:17:20 10° NW 20:21:09 62° SW 20:25:09 10° SSE
GEOS 3 Rocket 4.1 20:18:09 10° ESE 20:23:02 48° NE 20:27:57 10° NNW
ATLAS 2AS CENTAUR R/B 2.8 20:22:03 10° NNW 20:29:07 70° NE 20:35:42 10° SE
S3M 4.5 20:23:33 10° SSW 20:29:40 66° W 20:35:47 10° N
Resurs 1-3 3.8 20:25:39 10° S 20:30:00 74° WSW 20:34:24 10° NNW
USA 186 3.9 20:28:23 10° SSW 20:30:51 24° W 20:33:26 10° NW
USA 32 4.4 20:28:09 10° SSE 20:33:07 47° E 20:38:07 10° NNE
Cosmos 1980 Rocket 4.4 20:32:03 10° NNE 20:33:45 11° NE 20:35:28 10° ENE
PSLV R/B 4.0 20:29:53 10° NNE 20:34:00 61° E 20:38:08 10° S
Cosmos 1697 Rocket 4.3 20:30:32 10° N 20:34:40 20° NE 20:38:45 10° E
TSX-5 4.3 20:31:39 10° SSW 20:35:51 62° ESE 20:41:19 10° NNE
SPOT 1/Viking Rocket 3.7 20:34:38 10° SSE 20:39:40 59° ENE 20:44:44 10° N
Cosmos 1025 Rocket 3.3 20:38:31 10° SSW 20:42:46 72° W 20:47:05 10° N
IRS-1A Rocket 4.5 20:36:57 10° SSE 20:42:48 71° ENE 20:48:39 10° N
X-37B 2.0 20:40:43 10° WNW 20:43:16 30° N 20:45:49 10° ENE
NOSS 2-1 (E) 4.3 20:43:54 10° NNW 20:48:49 74° NE 20:55:09 13° SE
SPOT 5 4.1 20:49:45 12° ESE 20:52:42 22° ENE 20:56:01 10° NNE
Cosmos 1703 4.1 20:51:13 13° SSE 20:54:07 31° E 20:57:33 10° NNE
Cosmos 1452 Rocket 3.5 20:51:19 10° S 20:56:31 68° ESE 21:01:44 10° NNE
Cosmos 1833 Rocket 2.9 20:51:20 10° S 20:56:40 47° ESE 21:02:02 10° NE
Delta 2 Rocket 3.5 20:55:00 10° WSW 20:58:02 33° S 20:59:56 18° ESE
RESURS DK-1 3.3 20:54:45 10° N 20:58:33 34° ENE 21:01:19 16° ESE
Terra 3.5 20:56:28 12° ESE 20:59:27 20° ENE 21:02:52 10° NNE
BREEZE-M DEB (TANK) 4.2 20:59:47 10° W 21:01:26 17° SSW 21:03:20 11° S
Cosmos 1110 Rocket 4.3 20:57:33 10° S 21:02:33 47° ESE 21:07:37 10° NNE
Helios 1A Rocket 4.3 21:01:06 15° ESE 21:03:27 24° ENE 21:06:47 10° NNE
CZ-4B R/B 1.2 21:01:11 10° N 21:04:03 70° WNW 21:06:55 10° SSW
ERS-1 Rocket 4.1 21:02:33 15° ESE 21:05:52 30° ENE 21:10:13 10° N
Resurs 01 Rocket 2.0 21:01:46 10° S 21:06:09 63° W 21:10:34 10° NNW
Cosmos 1455 Rocket 4.3 21:02:13 10° NNW 21:06:15 39° W 21:10:16 10° SSW
Cosmos 2228 3.8 21:09:15 10° N 21:13:07 34° ENE 21:15:15 21° SE
Cosmos 2184 Rocket 4.1 21:11:11 10° N 21:17:18 60° E 21:21:54 18° SSE
Lacrosse 5 2.5 21:13:42 10° NW 21:18:34 46° SW 21:22:05 18° SSE
IRAS Rocket 4.3 21:15:57 10° NNE 21:21:34 86° WNW 21:27:05 10° SSW
Cosmos 1271 Rocket 3.7 21:21:43 10° NNW 21:25:30 45° W 21:28:52 12° SSW
Cosmos 2082 Rocket 2.8 21:27:22 21° SSE 21:30:31 36° ESE 21:35:42 10° NE
USA 245 3.3 21:30:03 23° SSE 21:32:39 87° WSW 21:36:11 10° NNW
Cosmos 1536 Rocket 3.9 21:28:48 10° SSW 21:33:04 63° W 21:37:24 10° N
H-2A R/B 4.3 21:29:25 10° N 21:33:10 27° WNW 21:36:57 10° SW
Cosmos 1455 3.6 21:30:59 10° NNW 21:34:30 35° W 21:37:44 12° SSW
CARTOSAT-1 3.9 21:33:48 18° S 21:36:50 60° W 21:41:07 10° NNW
ARIANE 5 R/B 3.7 21:35:43 24° ESE 21:37:27 32° ENE 21:41:22 10° N
USA 267 3.8 21:34:10 10° ENE 21:40:01 34° SE 21:45:16 12° S
Meteor 1-21 Rocket 4.1 21:36:53 16° S 21:41:20 77° E 21:47:01 10° NNE
Cosmos 1606 Rocket 4.0 21:37:43 10° N 21:41:54 46° E 21:43:24 32° SE
Tiangong 3.3 21:40:06 10° WSW 21:41:54 15° SW 21:41:54 15° SW
Cosmos 192 4.4 21:43:00 24° S 21:45:46 58° ESE 21:50:35 10° NNE
Cosmos 1741 Rocket 4.1 21:41:59 10° NNW 21:47:19 75° WSW 21:50:18 27° S
SPOT 3 Rocket 4.0 21:46:11 20° S 21:49:45 59° W 21:54:55 10° NNW
Ariane Rocket 4.3 21:46:35 11° SSW 21:50:59 35° W 21:55:40 10° NNW
Cosmos 2074 Rocket 4.4 21:53:43 10° NNW 21:59:53 61° W 22:04:20 19° SSW
Cosmos 2327 Rocket 4.4 21:53:53 10° N 22:00:12 76° E 22:03:23 31° SSE
Cosmos 1892 3.6 22:02:06 32° E 22:02:06 32° E 22:05:17 10° NNE
Cosmos 1726 Rocket 3.6 22:00:20 10° N 22:04:38 64° E 22:05:41 47° SE
Nadezhda 1 Rocket 4.1 22:03:17 17° SSW 22:08:01 72° W 22:14:06 10° N
Meteor 2-1 Rocket 4.2 22:09:42 10° NNW 22:15:12 76° W 22:17:41 34° S
Cosmos 1992 Rocket 4.4 22:15:18 39° ESE 22:15:58 41° ESE 22:20:52 10° NNE
Cosmos 1932 4.4 22:13:39 24° SSW 22:17:27 66° ESE 22:23:42 10° NE
SL-8 R/B 3.6 22:13:21 10° WNW 22:18:10 75° SW 22:19:18 51° SE
SL-16 R/B 4.1 22:14:26 10° N 22:18:26 19° NE 22:21:23 13° E
Cosmos 1980 Rocket 2.3 22:13:14 10° NNW 22:18:55 66° ENE 22:20:52 40° SE
X-37B 1.5 22:16:11 10° WNW 22:18:13 42° NW 22:18:13 42° NW
Cosmos 1697 Rocket 2.9 22:13:32 10° NNW 22:19:05 62° WSW 22:21:16 36° S
ATLAS 2AS CENTAUR R/B 4.4 22:14:17 10° WNW 22:19:15 22° WSW 22:23:22 12° SSW
Spot 2 Rocket 4.3 22:18:58 26° SSW 22:21:26 45° W 22:26:20 10° NNW
Cosmos 2369 3.7 22:16:47 10° NNW 22:22:34 79° ENE 22:24:30 43° SE
TIMED 4.4 22:21:54 56° S 22:22:44 78° ESE 22:27:07 10° NNE
COSMOS 2406 3.8 22:18:58 10° SW 22:24:38 57° WNW 22:30:19 10° NNE
ATLAS 5 CENTAUR R/B 1.6 22:29:23 48° ENE 22:29:23 48° ENE 22:32:30 10° NE
SPOT 5 4.0 22:28:58 24° SW 22:30:37 31° W 22:34:29 10° NW
In-Cosmos 22 Rocket 4.2 22:30:23 47° SSE 22:31:44 61° E 22:37:07 10° NNE
Cosmos 1869 4.3 22:31:51 10° N 22:35:09 34° ENE 22:35:09 34° ENE
RESURS DK-1 4.3 22:33:19 10° WNW 22:36:16 19° WSW 22:37:10 18° WSW
Cosmos 2084 Rocket 3.2 22:32:30 10° NW 22:36:27 71° WSW 22:36:30 71° SW
Terra 2.6 22:35:21 33° SW 22:36:51 44° W 22:41:25 10° NNW
Meteor 1-27 4.4 22:35:54 10° N 22:41:23 56° ENE 22:42:35 46° ESE
Cosmos 1892 Rocket 4.3 22:41:21 34° SW 22:42:47 47° W 22:47:02 10° N
ERS-1 Rocket 4.3 22:42:32 23° SW 22:44:34 31° W 22:49:02 10° NW
ASTEX 1 3.3 22:39:42 10° N 22:44:44 87° W 22:45:50 56° SSW
Cosmos 1825 2.6 22:49:40 55° NE 22:49:40 55° NE 22:52:45 10° NNE
ADEOS Rocket 4.5 22:45:43 24° ESE 22:49:03 36° ENE 22:55:50 10° N
Cosmos 1408 3.5 22:50:12 40° WNW 22:50:12 40° WNW 22:53:24 10° N
SL-8 Rocket 3.9 22:44:56 10° N 22:51:11 90° E 22:53:01 49° S
Cosmos 2344 4.4 22:42:05 10° NW 22:51:33 78° WSW 22:58:13 34° SSE
Cosmos 2058 Rocket 3.2 22:47:46 10° NNW 22:52:10 66° W 22:52:35 62° SW
Cosmos 2322 Rocket 3.8 22:49:28 10° N 22:54:09 25° NE 22:56:24 20° E
Cosmos 1626 Rocket 3.5 22:54:44 71° ENE 22:54:44 71° ENE 22:58:54 10° NNE
Cosmos 2278 3.6 22:59:30 10° NNW 23:05:15 90° NW 23:06:17 62° SSE
Cosmos 968 Rocket 4.0 23:00:49 10° NNW 23:05:47 46° WSW 23:06:36 42° SW
Cosmos 2366 rocket 4.0 23:03:57 10° N 23:10:19 78° W 23:12:00 51° SSW
SJ 16-02 2.7 23:08:17 10° N 23:12:09 29° ENE 23:12:19 29° ENE
Cosmos 2218 Rocket 4.1 23:07:30 10° N 23:13:54 73° W 23:15:36 50° SSW
ARIANE 5 R/B 4.3 23:13:16 22° WSW 23:13:54 23° W 23:17:27 10° NW
Cosmos 2082 Rocket 3.7 23:09:30 10° WSW 23:14:36 33° WNW 23:19:43 10° N
Meteor 2-20 4.4 23:13:53 56° SE 23:14:51 64° E 23:20:52 10° NNE
Cosmos 1867 3.7 23:11:26 10° NW 23:16:46 56° WSW 23:17:08 54° SW
GP-B 4.2 23:16:22 10° NNW 23:20:25 36° W 23:21:00 34° W
H-2A R/B 4.3 23:17:43 10° NNE 23:20:55 43° ENE 23:20:55 43° ENE
USA 267 3.5 23:16:46 10° NE 23:23:15 68° NW 23:29:43 10° WSW
Cosmos 2058 4.2 23:26:08 31° ENE 23:26:08 31° ENE 23:28:59 10° NNE
Spot 4 3.7 23:27:40 87° E 23:27:40 87° E 23:32:29 10° NNW
Cosmos 1606 4.0 23:25:31 10° N 23:28:16 35° NE 23:28:16 35° NE
Cosmos 2360 Rocket 3.5 23:25:08 10° N 23:30:08 31° ENE 23:32:00 25° E
SL-08 R/B 4.5 23:30:19 10° N 23:36:49 85° E 23:38:04 61° SSE
Meteor 2-20 Rocket 4.3 23:42:26 66° SSE 23:43:16 77° E 23:49:22 10° N
Cosmos 1633 4.2 23:45:56 30° NW 23:45:56 30° NW 23:48:07 10° N
Cosmos 1758 Rocket 3.9 23:45:44 59° NW 23:45:44 59° NW 23:49:40 10° N
Cosmos 2237 4.4 23:40:20 10° NNW 23:46:02 62° ENE 23:46:53 55° ESE
